Regional Weather Roundup
Issued by NWS Newport/Morehead, NC

Current Version | Previous Version | Text Only | Print | Product List | Glossary On
Versions: 1 2 3 4 5 6 7 8 9 10 11 12 13 14 15 16 17 18 19 20 21 22 23 24 25 26 27 28 29 30 31 32 33 34 35 36 37 38 39 40 41 42 43 44 45 46 47 48 49 50
000 ASUS42 KMHX 260510 RWRMHX WEATHER ROUNDUP FOR EASTERN NORTH CAROLINA NATIONAL WEATHER SERVICE NEWPORT/MOREHEAD CITY NC 100 AM EDT SAT JUL 26 2014 NOTE: "FAIR" INDICATES FEW OR NO CLOUDS BELOW 12,000 FEET WITH NO SIGNIFICANT WEATHER AND/OR OBSTRUCTIONS TO VISIBILITY NCZ015>017-031-032-045>047-102-103-260600- NORTH COAST CITY SKY/WX TMP DP RH WIND PRES REMARKS EDENTON CLEAR 72 62 72 SE6 30.03F ELIZABETH CITY CLEAR 70 61 73 SE5 30.03F KITTY HAWK CLEAR 74 60 63 E3 30.02F MANTEO NOT AVBL $$ NCZ045>047-081-094-103-104-260600- CENTRAL COAST CITY SKY/WX TMP DP RH WIND PRES REMARKS FRISCO CLOUDY 74 69 85 E6 30.04F SWANQUARTER N/A 72 N/A N/A CALM 30.00S $$ NCZ095-097-098-100-101-260600- SOUTHERN COAST CITY SKY/WX TMP DP RH WIND PRES REMARKS BEAUFORT MOCLDY 78 73 84 E6 30.03F CEDAR ISLAND N/A 77 N/A N/A E15 30.06F JACKSONVILLE PTCLDY 76 72 87 E6 30.02F NEWPORT NOT AVBL PINEY ISLAND PTCLDY 78 73 84 E13 30.04S WILMINGTON PTCLDY 75 73 93 CALM 30.02F $$ NCZ011>013-027>030-043-044-078>080-089-090>093-098-260600- COASTAL PLAIN CITY SKY/WX TMP DP RH WIND PRES REMARKS AHOSKIE CLEAR 68 64 87 CALM 30.05R CLINTON CLEAR 73 73 99 CALM 30.03F ELIZABETHTOWN CLEAR 74 74 98 CALM 30.02F GOLDSBORO CLEAR 74 73 98 S2 30.01F GREENVILLE CLEAR 73 72 94 CALM 30.06S HAVELOCK MOCLDY 74 69 85 SE3 30.05S KENANSVILLE PTCLDY 70 69 95 CALM 30.04F FOG KINSTON CLEAR 74 72 93 CALM 30.04F NEW BERN CLEAR 73 69 87 S3 30.04F RICHLANDS CLOUDY 72 70 94 CALM 30.03F ROANOKE RAPIDS NOT AVBL ROCKY MOUNT CLEAR 73 70 90 CALM 30.03F WASHINGTON CLEAR 71 67 88 E3 30.04F WHITEVILLE CLEAR 74 73 96 CALM 30.01F FOG $$ AMZ130-135-150-152-154-156-158-170-250-252-270-ANZ085-086-088-633-658-670-260600- MARINE OBSERVATIONS STATION/POSITION TIME TEMP WIND PRES WAVE SWELL AIR SEA DIR/SP/G HT/PER HT/PER (UTC) (F) (DEG/KT/KT) (MB) (FT/S) (FT/S) CHESAPEAKE LIGHT NOT AVBL BUOY 44014 0500 76 78 130/ 8/ 10 1016.6 2/ 6 2/ 6 DUCK 0500 76 77 130/ 10/ 12 1016.2 2E DUCK 0500 N/A 2/ 5 OREGON INLET 0500 74 80 100/ 5/ 8 1017.0 BUOY 44095 0500 77 N/A 3/ 7 20E OREGON INLET NOT AVBL HATTERAS CG 0500 76 81 90/ 6/ 9 1017.7 DIAMOND BUOY 0500 VRB 8/ 10 1017.1 3/ 6 2/ 6 CAPE LOOKOUT 0400 79 80/ 9/ 10 1017.1 BEAUFORT LAB 0500 78 81 100/ 4/ 5 1016.7 30 SE NEW RIVER 0500 79 81 190/ 2/ 4 1016.8 3/ 6 3/ 6 5 SE WRIGHTSVILL 0400 77 81 120/ 6/ 8 N/A BUOY 41002 0407 82 82 260/ 10/ 12 1019.2 4/ 7 3/ 7 BUOY 41004 0500 83 83 220/ 12/ 14 1016.0 3/ 5 2/ 8 $$

USA.gov is the U.S. government's official web portal to all federal, state and local government web resources and services.